Location: Larkspur
(54.4391°N, 113.7691°W)
Time: 18:13:55
(UTC+00:00)

LilacSat-2 - Pass Details

Date: 06 December 2023
Orbit: 485 x 504 km, 97.5° (Epoch: 21 February)

Event Time Altitude Azimuth Distance (km) Brightness Sun altitude
Rises 13:15:01 0° 22° (NNE) 2,637 ? -19.7°
Maximum altitude 13:20:37 28° 95° (E) 988 ? -18.9°
Drops below altitude 10° 13:23:54 10° 156° (SSE) 1,736 ? -18.4°
Sets 13:26:12 0° 168° (SSE) 2,616 ? -18.1°
